SCP
1 1 1 0 0 0 0 0 0 0 0 0 0 0 0 0 0 0 0 0 0 0 0 0 0 0 0 0 0 0 0 0 0 0 0 0 0 0 0 0 0 0 0
1 1 1 1 1 1 0 0 0 0 0 0 0 0 0 0 0 0 0 0 0 0 0 0 0 0 0 0 0 0 0 0 0 0 0 0 0 0 0 0 0 0 0
2 2 1 1 1 1 0 0 0 0 0 0 0 0 0 0 0 0 0 0 0 0 0 0 0 0 0 0 0 0 0 0 0 0 0 0 0 0 0 0 0 0 0
3 2 2 1 1 1 1 1 1 0 0 0 0 0 0 0 0 0 0 0 0 0 0 0 0 0 0 0 0 0 0 0 0 0 0 0 0 0 0 0 0 0 0
3 2 2 1 1 1 1 1 1 1 0 0 0 0 0 0 0 0 0 0 0 0 0 0 0 0 0 0 0 0 0 0 0 0 0 0 0 0 0 0 0 0 0
2 2 1 1 1 1 1 1 1 1 1 0 0 0 0 0 0 0 0 0 0 0 0 0 0 0 0 0 0 0 0 0 0 0 0 0 0 0 0 0 0 0 0
2 2 2 1 1 1 1 1 1 1 1 1 1 0 0 0 0 0 0 0 0 0 0 0 0 0 0 0 0 0 0 0 0 0 0 0 0 0 0 0 0 0 0
1 1 2 2 2 1 1 1 1 1 1 1 1 1 0 0 0 0 0 0 0 0 0 0 0 0 0 0 0 0 0 0 0 0 0 0 0 0 0 0 0 0 0
1 1 1 1 1 1 1 1 1 1 1 1 1 1 0 0 0 0 0 0 0 0 0 0 0 0 0 0 0 0 0 0 0 0 0 0 0 0 0 0 0 0 0
0 0 0 1 1 1 1 1 1 1 1 1 1 1 0 0 0 0 0 0 0 0 0 0 0 0 0 0 0 0 0 0 0 0 0 0 0 0 0 0 0 0 0
0 0 0 0 0 0 0 0 0 0 0 0 0 0 0 0 0 0 0 0 0 0 0 0 0 0 0 0 0 0 0 0 0 0 0 0 0 0 0 0 0 0 0
0 0 0 0 0 0 0 0 0 0 0 0 0 0 0 0 0 0 0 0 0 0 0 0 0 0 0 0 0 0 0 0 0 0 0 0 0 0 0 0 0 0 0
0 0 0 0 0 0 0 0 0 0 0 0 0 0 0 0 0 0 0 0 0 0 0 0 0 0 0 0 0 0 0 0 0 0 0 0 0 0 0 0 0 0 0
0 0 0 0 0 0 0 0 0 0 0 0 0 0 0 0 0 0 0 0 0 0 0 0 0 0 0 0 0 0 0 0 0 0 0 0 0 0 0 0 0 0 0
0 0 0 0 0 0 0 0 0 0 0 0 0 0 0 0 0 0 0 0 0 0 0 0 0 0 0 0 0 0 0 0 0 0 0 0 0 0 0 0 0 0 0
0 0 0 0 0 0 0 0 0 0 0 0 0 0 0 0 0 0 0 0 0 0 0 0 0 0 0 0 0 0 0 0 0 0 0 0 0 0 0 0 0 0 0
0 0 0 0 0 0 0 0 0 0 0 0 0 0 0 0 0 0 0 0 0 0 0 0 0 0 0 0 0 0 0 0 0 0 0 0 0 0 0 0 0 0 0
0 0 0 0 0 0 0 0 0 0 0 0 0 0 0 0 0 0 0 0 0 0 0 0 0 0 0 0 0 0 0 0 0 0 0 0 0 0 0 0 0 0 0
0 0 0 0 0 0 0 0 0 0 0 0 0 0 0 0 0 0 0 0 0 0 0 0 0 0 0 0 0 0 0 0 0 0 0 0 0 0 0 0 0 0 0
0 0 0 0 0 0 0 0 0 0 0 0 0 0 0 0 0 0 0 0 0 0 0 0 0 0 0 0 0 0 0 0 0 0 0 0 0 0 0 0 0 0 0
0 0 0 0 0 0 0 0 0 0 0 0 0 0 0 0 0 0 0 0 0 0 0 0 0 0 0 0 0 0 0 0 0 0 0 0 0 0 0 0 0 0 0
0 0 0 0 0 0 0 0 0 0 0 0 0 0 0 0 0 0 0 0 0 0 0 0 0 0 0 0 0 0 0 0 0 0 0 0 0 0 0 0 0 0 0
0 0 0 0 0 0 0 0 0 0 0 0 0 0 0 0 0 0 0 0 0 0 0 0 0 0 0 0 0 0 0 0 0 0 0 0 0 0 0 0 0 0 0
0 0 0 0 0 0 0 0 0 0 0 0 0 0 0 0 0 -0 -0 -0 0 0 0 0 0 0 0 0 0 0 0 0 0 0 0 0 0 0 0 0 0 0 0
0 0 0 0 0 0 0 0 0 0 0 0 0 0 0 0 -0 -0 -0 -0 -0 0 0 0 -0 -0 0 0 0 0 0 0 0 0 0 0 0 0 0 0 0 0 0
0 0 0 0 0 0 0 0 0 0 0 0 0 0 0 0 0 -0 -0 -0 -0 0 0 0 0 -0 -0 0 -0 0 0 0 0 0 0 0 0 0 0 0 0 0 0
Wind_Speed
6 5 5 3 2 4 2 3 4 3 4 4 3 3 4 4 4 4 4 5 6 5 4 4 3 3 1 5 4 2 2 2 3 3 2 4 6 6 4 3 6 6 5
6 6 6 6 5 4 5 5 5 5 5 4 5 4 4 5 4 4 4 5 6 6 5 5 4 3 3 3 5 3 2 2 2 3 3 4 6 7 7 5 5 6 7
7 6 7 6 6 6 5 6 6 5 5 5 4 4 5 6 5 5 5 4 4 5 5 5 4 5 4 0 2 1 2 4 4 2 3 3 3 5 7 5 5 3 6
8 6 6 6 7 6 5 6 6 6 6 6 6 5 5 6 6 7 7 6 5 5 5 5 5 5 5 3 1 0 1 3 6 5 3 3 3 4 6 5 4 3 3
8 7 6 5 5 6 6 6 6 6 6 6 5 5 4 4 6 8 8 8 7 6 6 6 7 8 9 7 4 3 1 2 4 5 4 3 4 4 6 5 5 4 5
7 7 6 5 3 4 4 6 6 6 5 5 4 4 5 5 8 10 7 6 7 7 8 8 8 10 13 14 12 8 7 6 6 5 5 5 8 7 5 5 5 5 4
3 3 4 3 2 2 3 4 5 5 5 5 5 5 5 5 10 11 10 5 6 8 9 9 9 10 12 8 11 14 13 15 14 7 6 7 7 8 8 7 6 6 5
7 6 3 1 1 2 4 4 4 4 4 5 5 5 5 5 10 11 10 5 5 5 5 5 7 8 10 10 8 7 8 9 10 8 6 5 5 6 10 9 8 6 4
7 7 7 7 5 5 4 5 5 4 4 4 4 5 5 5 11 11 9 4 5 6 6 6 5 5 12 15 8 6 4 3 2 4 5 3 3 2 4 6 6 5 4
7 7 7 7 7 6 6 5 4 4 4 3 2 3 4 5 9 13 11 4 5 5 5 4 5 3 5 11 6 4 2 1 2 3 3 2 1 1 2 5 6 6 4
5 5 5 5 4 5 5 4 4 3 3 3 2 1 2 2 5 11 11 5 4 4 3 2 2 9 10 8 3 3 4 2 2 2 2 1 1 1 2 2 2 3 4
3 4 3 4 5 4 4 4 4 3 3 2 2 2 2 1 2 6 9 8 5 4 4 2 4 9 9 7 4 6 5 2 2 2 1 1 1 1 1 1 2 2 2
4 3 3 3 4 3 3 3 3 3 3 3 3 3 2 1 1 2 5 5 4 2 1 5 9 8 7 5 6 6 3 1 1 1 1 1 1 1 2 1 2 2 1
4 2 3 4 4 4 4 5 5 6 5 5 4 4 3 2 2 1 1 2 2 2 3 7 9 6 3 6 6 2 1 1 2 1 1 1 1 1 1 1 1 1 1
3 3 4 4 3 3 4 4 4 5 4 4 3 4 4 3 4 6 2 1 1 2 1 3 3 3 3 3 3 2 2 2 1 1 1 1 1 2 2 1 1 2 2
3 4 3 2 2 1 2 3 6 6 6 7 5 4 3 4 5 3 2 4 5 5 2 1 2 3 3 4 3 2 1 1 2 2 2 2 2 2 2 2 2 2 3
3 3 2 2 1 0 1 1 3 3 4 5 7 8 7 6 5 5 5 6 5 3 1 1 1 2 2 3 2 2 1 2 2 2 2 2 2 2 2 2 3 3 3
2 2 1 2 2 2 2 2 2 2 2 2 4 7 8 7 6 5 4 3 3 3 2 3 3 3 3 3 2 1 1 1 0 0 1 1 2 2 1 2 2 3 3
2 3 3 2 2 2 2 3 3 2 2 2 2 1 3 4 3 3 4 2 2 3 3 3 3 3 3 3 2 2 1 1 1 1 1 1 1 2 2 3 3 4 4
3 4 2 2 2 2 2 2 2 1 1 2 2 1 1 2 2 2 2 3 3 3 3 4 4 4 3 3 3 2 2 2 2 1 2 2 1 1 2 3 3 3 3
2 4 1 2 1 2 2 2 2 2 3 3 3 3 4 2 3 4 4 4 4 4 4 3 3 3 3 3 3 3 3 3 3 3 3 2 1 1 2 2 3 3 2
2 4 3 1 2 3 3 2 2 2 4 4 3 2 4 3 3 3 3 3 3 3 4 4 4 3 3 3 3 3 3 3 3 3 3 3 2 2 2 2 3 3 3
1 3 3 2 2 1 1 2 2 3 4 4 4 3 2 3 3 4 4 4 4 4 4 4 4 4 4 3 3 3 4 5 4 4 4 3 3 3 3 3 3 2 2
2 4 3 2 2 2 2 3 3 3 4 4 3 3 3 3 4 5 5 4 5 5 5 5 5 7 7 5 4 4 5 6 7 4 4 3 3 3 3 2 2 2 2
3 4 2 2 3 2 3 3 3 3 4 4 4 3 3 4 4 4 4 4 5 5 5 5 4 6 8 9 8 7 10 10 8 5 3 2 3 3 3 2 2 2 2
4 4 3 2 2 3 3 3 3 4 4 4 3 3 3 4 4 3 3 3 4 4 4 4 6 8 9 8 9 10 10 9 8 7 3 2 3 3 3 2 3 3 3
Wind_Direction
188 167 153 193 163 145 181 150 149 181 166 177 203 231 164 163 179 191 205 211 215 214 206 190 169 136 157 276 278 262 251 193 183 193 157 156 148 163 159 173 154 166 171
179 171 174 177 168 184 186 175 181 198 180 185 203 201 163 161 172 183 193 194 192 187 179 170 155 130 96 286 275 270 277 293 230 178 156 167 171 171 163 190 175 193 170
179 182 178 181 184 194 197 178 186 196 185 191 212 193 165 163 170 174 174 174 171 168 164 160 147 124 114 170 301 314 349 316 301 232 180 177 184 172 162 183 184 217 171
178 190 193 202 186 183 192 179 182 197 196 200 208 194 174 168 170 174 177 182 184 184 183 182 175 159 157 172 196 93 22 312 285 260 202 181 197 182 165 171 192 205 198
172 185 198 224 195 184 184 174 189 202 203 206 203 184 180 182 189 183 181 182 186 194 202 206 205 201 196 198 197 181 175 273 276 256 221 186 193 187 190 177 190 187 207
169 185 192 219 212 183 184 180 196 200 208 205 195 185 188 207 196 184 177 184 191 202 214 218 218 219 220 220 223 220 217 232 244 245 225 201 204 199 186 182 182 179 207
148 169 174 188 213 214 225 215 204 198 200 210 203 201 205 198 175 176 186 209 216 214 212 210 212 214 215 222 229 231 235 237 233 233 236 225 207 195 186 191 192 195 205
34 28 29 48 289 279 273 267 247 230 214 209 214 215 215 193 184 185 186 218 256 252 234 213 203 200 200 205 213 221 228 233 230 224 232 244 234 202 190 196 194 195 213
30 31 31 32 21 5 342 315 301 291 282 253 229 221 220 204 191 192 186 213 246 256 249 233 226 216 198 195 203 221 225 225 174 143 119 94 44 304 209 175 170 168 194
28 33 35 38 35 23 6 357 348 338 320 305 266 234 226 219 198 197 197 218 243 254 254 238 214 173 149 178 193 202 205 202 135 125 117 128 170 215 189 175 173 179 180
32 39 39 29 28 28 0 356 357 353 341 335 322 298 275 258 204 204 202 222 246 273 275 247 150 140 134 141 133 106 122 100 101 116 131 149 172 232 218 192 160 177 179
47 40 44 55 36 19 7 4 4 9 15 16 3 341 320 302 187 211 212 226 264 296 286 257 129 140 138 134 118 117 108 86 118 140 159 170 183 205 222 140 109 72 85
62 54 42 67 75 26 6 359 358 7 15 23 26 14 357 14 113 195 220 245 242 272 311 118 127 136 130 115 111 117 128 165 139 156 160 162 176 167 144 116 102 94 61
93 63 70 63 61 45 27 20 31 31 25 26 23 11 359 5 19 337 222 192 170 177 125 115 125 138 133 122 129 147 206 164 145 176 179 164 146 151 180 165 156 142 183
96 83 78 80 77 67 69 49 42 57 37 22 12 357 2 3 2 348 339 54 51 25 96 145 151 159 158 134 127 118 103 117 151 203 181 166 177 199 217 195 183 182 202
46 60 62 85 90 101 127 116 66 70 61 51 32 5 350 354 332 343 47 87 71 42 22 232 190 172 160 146 144 149 176 233 229 216 213 206 204 207 208 195 201 215 232
23 47 45 52 84 200 219 180 150 111 80 53 30 24 26 27 44 59 74 90 91 77 38 1 42 74 84 103 126 151 202 227 221 217 219 225 215 210 213 217 217 229 243
33 94 36 23 359 340 349 45 87 129 135 105 43 34 41 52 60 59 42 61 82 81 83 83 74 66 65 65 70 59 3 351 11 305 289 263 200 185 217 247 242 241 251
23 50 57 35 340 330 38 73 82 88 113 141 141 40 20 12 360 352 345 23 73 79 78 75 72 67 59 53 47 31 359 342 332 327 304 286 260 211 223 241 254 263 265
101 88 39 346 327 4 66 95 94 74 60 95 107 83 323 320 355 14 24 32 45 51 58 66 64 56 43 33 21 3 344 340 340 332 305 290 281 267 257 258 252 251 250
155 132 145 301 343 24 66 87 83 86 85 80 76 42 12 22 39 39 37 34 36 38 43 56 59 55 42 34 25 12 10 6 4 354 340 316 288 271 269 271 273 266 266
161 143 160 128 44 30 32 81 52 69 104 100 101 79 32 40 54 63 53 35 32 43 43 46 49 50 43 30 17 9 1 348 340 336 326 317 305 280 267 262 266 261 247
237 121 122 114 115 72 15 88 75 53 70 88 90 77 53 48 48 53 49 41 45 50 45 47 47 39 32 25 19 14 2 348 333 318 312 308 304 290 272 263 268 281 285
153 113 122 134 126 98 79 80 81 74 69 74 82 81 71 66 63 59 55 52 52 51 43 41 44 38 30 27 23 29 17 347 327 314 317 319 317 310 298 287 285 291 297
119 114 126 124 135 131 115 105 97 92 84 76 68 65 66 69 71 69 66 70 73 67 57 46 41 36 24 25 20 8 353 347 348 342 336 343 339 335 336 333 323 309 295
118 122 119 107 117 128 133 133 118 103 94 89 81 70 70 72 71 68 60 64 81 76 62 53 59 50 28 17 9 3 0 2 6 6 357 353 356 358 353 334 312 295 284